International Skating Union - Official Site

ISU World Cup Obihiro
November 14-16, 2014

Draw | Lap Times | Index | World Cup

Referee: Dan  IMMERFALL  (USA)
Starter: Yoshihiro  KITAZAWA  (JPN)
StartTime: EndTime: Air Temp: Ice Temp: Humidity:
10:54 11:37 16.4℃ -7.4℃ 34%
Result 5000m Men Division B
Rankings as of Nov 15 2014 6:06PM
Rank: No.: Name: Nation: Time: Behind: Points:
1 191 Jan  Szymanski POL POL 6:29.51200m - 18.62 - (18.6)
600m - 48.84 - (30.2)
1000m - 1:18.20 - (29.3)
1400m - 1:48.82 - (30.6)
1800m - 2:19.64 - (30.8)
2200m - 2:50.39 - (30.7)
2600m - 3:21.00 - (30.6)
3000m - 3:51.88 - (30.8)
3400m - 4:22.68 - (30.8)
3800m - 4:53.58 - (30.9)
4200m - 5:25.03 - (31.4)
4600m - 5:57.52 - (32.4)
5000m - 6:29.51 - (32.0)
32
2 132 Andrea  Giovannini ITA ITA 6:35.58200m - 19.29 - (19.2)
600m - 50.08 - (30.7)
1000m - 1:22.09 - (32.0)
1400m - 1:53.86 - (31.7)
1800m - 2:25.06 - (31.2)
2200m - 2:56.29 - (31.2)
2600m - 3:27.54 - (31.2)
3000m - 3:58.59 - (31.0)
3400m - 4:29.75 - (31.1)
3800m - 5:00.98 - (31.2)
4200m - 5:32.39 - (31.4)
4600m - 6:03.77 - (31.3)
5000m - 6:35.58 - (31.8)
6,07 27
3 105 Jordan  Belchos CAN CAN 6:37.60200m - 19.31 - (19.3)
600m - 49.25 - (29.9)
1000m - 1:19.86 - (30.6)
1400m - 1:50.69 - (30.8)
1800m - 2:21.54 - (30.8)
2200m - 2:52.67 - (31.1)
2600m - 3:24.12 - (31.4)
3000m - 3:55.74 - (31.6)
3400m - 4:27.83 - (32.0)
3800m - 5:00.12 - (32.2)
4200m - 5:32.72 - (32.6)
4600m - 6:05.30 - (32.5)
5000m - 6:37.60 - (32.3)
8,09 23
4 149 Takuro  Ogawa JPN JPN 6:41.36200m - 19.62 - (19.6)
600m - 50.31 - (30.6)
1000m - 1:20.79 - (30.4)
1400m - 1:51.83 - (31.0)
1800m - 2:23.04 - (31.2)
2200m - 2:54.51 - (31.4)
2600m - 3:26.28 - (31.7)
3000m - 3:58.50 - (32.2)
3400m - 4:30.62 - (32.1)
3800m - 5:02.86 - (32.2)
4200m - 5:35.19 - (32.3)
4600m - 6:08.54 - (33.3)
5000m - 6:41.36 - (32.8)
11,85 19
5 117 Yiming  Liu CHN CHN 6:41.45200m - 20.03 - (20.0)
600m - 50.11 - (30.0)
1000m - 1:20.40 - (30.2)
1400m - 1:50.82 - (30.4)
1800m - 2:21.55 - (30.7)
2200m - 2:52.68 - (31.1)
2600m - 3:24.46 - (31.7)
3000m - 3:56.63 - (32.1)
3400m - 4:29.22 - (32.5)
3800m - 5:02.33 - (33.1)
4200m - 5:35.62 - (33.2)
4600m - 6:08.77 - (33.1)
5000m - 6:41.45 - (32.6)
11,94 15
6 160 Cheol-Min  Kim KOR KOR 6:41.46200m - 20.08 - (20.0)
600m - 50.09 - (30.0)
1000m - 1:20.76 - (30.6)
1400m - 1:51.90 - (31.1)
1800m - 2:23.12 - (31.2)
2200m - 2:54.51 - (31.3)
2600m - 3:26.27 - (31.7)
3000m - 3:58.15 - (31.8)
3400m - 4:30.46 - (32.3)
3800m - 5:02.95 - (32.4)
4200m - 5:35.80 - (32.8)
4600m - 6:08.62 - (32.8)
5000m - 6:41.46 - (32.8)
11,95 11
7 152 Shane  Williamson JPN JPN 6:43.49200m - 18.61 - (18.6)
600m - 49.74 - (31.1)
1000m - 1:21.43 - (31.6)
1400m - 1:53.27 - (31.8)
1800m - 2:24.94 - (31.6)
2200m - 2:57.00 - (32.0)
2600m - 3:28.74 - (31.7)
3000m - 4:00.83 - (32.0)
3400m - 4:32.98 - (32.1)
3800m - 5:05.19 - (32.2)
4200m - 5:37.80 - (32.6)
4600m - 6:10.59 - (32.7)
5000m - 6:43.49 - (32.9)
13,98 9
8 146 Masahito  Obayashi JPN JPN 6:44.48200m - 19.31 - (19.3)
600m - 50.19 - (30.8)
1000m - 1:22.04 - (31.8)
1400m - 1:53.50 - (31.4)
1800m - 2:25.23 - (31.7)
2200m - 2:57.06 - (31.8)
2600m - 3:29.18 - (32.1)
3000m - 4:01.16 - (31.9)
3400m - 4:33.62 - (32.4)
3800m - 5:05.89 - (32.2)
4200m - 5:38.67 - (32.7)
4600m - 6:11.42 - (32.7)
5000m - 6:44.48 - (33.0)
14,97 7
9 114 Stefan  Waples CAN CAN 6:44.56200m - 20.05 - (20.0)
600m - 50.77 - (30.7)
1000m - 1:21.56 - (30.7)
1400m - 1:52.74 - (31.1)
1800m - 2:24.13 - (31.3)
2200m - 2:55.85 - (31.7)
2600m - 3:27.55 - (31.7)
3000m - 3:59.61 - (32.0)
3400m - 4:31.79 - (32.1)
3800m - 5:04.54 - (32.7)
4200m - 5:37.57 - (33.0)
4600m - 6:10.86 - (33.2)
5000m - 6:44.56 - (33.7)
15,05 6
10 192 Adrian  Wielgat POL POL 6:45.88200m - 20.20 - (20.2)
600m - 51.29 - (31.0)
1000m - 1:22.92 - (31.6)
1400m - 1:54.33 - (31.4)
1800m - 2:25.80 - (31.4)
2200m - 2:57.36 - (31.5)
2600m - 3:28.77 - (31.4)
3000m - 4:00.35 - (31.5)
3400m - 4:32.68 - (32.3)
3800m - 5:05.39 - (32.7)
4200m - 5:38.41 - (33.0)
4600m - 6:12.21 - (33.8)
5000m - 6:45.88 - (33.6)
16,37 5
11 164 Byung-Wook  Ko KOR KOR 6:47.25200m - 19.70 - (19.7)
600m - 50.15 - (30.4)
1000m - 1:21.23 - (31.0)
1400m - 1:52.44 - (31.2)
1800m - 2:24.00 - (31.5)
2200m - 2:55.70 - (31.7)
2600m - 3:27.83 - (32.1)
3000m - 4:00.25 - (32.4)
3400m - 4:33.05 - (32.8)
3800m - 5:05.97 - (32.9)
4200m - 5:39.27 - (33.2)
4600m - 6:12.93 - (33.6)
5000m - 6:47.25 - (34.3)
17,74 4
12 135 Nicola  Tumolero ITA ITA 6:49.15200m - 19.96 - (19.9)
600m - 51.03 - (31.0)
1000m - 1:22.32 - (31.2)
1400m - 1:53.64 - (31.3)
1800m - 2:25.51 - (31.8)
2200m - 2:57.71 - (32.2)
2600m - 3:30.02 - (32.3)
3000m - 4:02.73 - (32.7)
3400m - 4:35.52 - (32.7)
3800m - 5:08.57 - (33.0)
4200m - 5:41.89 - (33.3)
4600m - 6:15.45 - (33.5)
5000m - 6:49.15 - (33.7)
19,64 3
13 102 Linus  Heidegger AUT AUT 6:49.51200m - 19.81 - (19.8)
600m - 51.23 - (31.4)
1000m - 1:22.38 - (31.1)
1400m - 1:54.24 - (31.8)
1800m - 2:26.16 - (31.9)
2200m - 2:58.00 - (31.8)
2600m - 3:29.97 - (31.9)
3000m - 4:02.33 - (32.3)
3400m - 4:34.98 - (32.6)
3800m - 5:08.13 - (33.1)
4200m - 5:41.41 - (33.2)
4600m - 6:15.17 - (33.7)
5000m - 6:49.51 - (34.3)
20,00 2
14 119 Talabuhan  Rehanbai CHN CHN 6:49.61200m - 20.69 - (20.6)
600m - 51.67 - (30.9)
1000m - 1:23.03 - (31.3)
1400m - 1:54.34 - (31.3)
1800m - 2:26.07 - (31.7)
2200m - 2:57.79 - (31.7)
2600m - 3:30.06 - (32.2)
3000m - 4:02.61 - (32.5)
3400m - 4:35.79 - (33.1)
3800m - 5:08.52 - (32.7)
4200m - 5:41.86 - (33.3)
4600m - 6:15.48 - (33.6)
5000m - 6:49.61 - (34.1)
20,10 1
15 187 Roland  Cieslak POL POL 6:49.71200m - 19.59 - (19.5)
600m - 49.97 - (30.3)
1000m - 1:21.18 - (31.2)
1400m - 1:53.13 - (31.9)
1800m - 2:25.34 - (32.2)
2200m - 2:58.06 - (32.7)
2600m - 3:30.79 - (32.7)
3000m - 4:04.13 - (33.3)
3400m - 4:37.52 - (33.3)
3800m - 5:10.86 - (33.3)
4200m - 5:44.15 - (33.2)
4600m - 6:17.33 - (33.1)
5000m - 6:49.71 - (32.3)
20,20 0
16 140 Yuta  Kiyama JPN JPN 6:50.90200m - 20.34 - (20.3)
600m - 51.79 - (31.4)
1000m - 1:23.33 - (31.5)
1400m - 1:54.90 - (31.5)
1800m - 2:26.54 - (31.6)
2200m - 2:58.42 - (31.8)
2600m - 3:30.77 - (32.3)
3000m - 4:03.44 - (32.6)
3400m - 4:36.29 - (32.8)
3800m - 5:09.47 - (33.1)
4200m - 5:43.00 - (33.5)
4600m - 6:16.94 - (33.9)
5000m - 6:50.91 - (33.9)
21,39 0
17 148 Shohya  Ogawa JPN JPN 6:51.34200m - 19.60 - (19.6)
600m - 50.78 - (31.1)
1000m - 1:22.70 - (31.9)
1400m - 1:55.26 - (32.5)
1800m - 2:27.80 - (32.5)
2200m - 3:00.28 - (32.4)
2600m - 3:33.15 - (32.8)
3000m - 4:06.17 - (33.0)
3400m - 4:39.24 - (33.0)
3800m - 5:12.51 - (33.2)
4200m - 5:45.51 - (33.0)
4600m - 6:18.26 - (32.7)
5000m - 6:51.34 - (33.0)
21,83 0
18 206 Martin  Hänggi SUI SUI 6:54.84200m - 20.22 - (20.2)
600m - 51.94 - (31.7)
1000m - 1:24.02 - (32.0)
1400m - 1:56.49 - (32.4)
1800m - 2:28.90 - (32.4)
2200m - 3:01.48 - (32.5)
2600m - 3:34.27 - (32.7)
3000m - 4:07.30 - (33.0)
3400m - 4:40.54 - (33.2)
3800m - 5:13.71 - (33.1)
4200m - 5:47.07 - (33.3)
4600m - 6:20.63 - (33.5)
5000m - 6:54.84 - (34.2)
25,33 0
19 157 Artur  Sergiyenko KAZ KAZ 7:22.85200m - 19.38 - (19.3)
600m - 50.96 - (31.5)
1000m - 1:23.59 - (32.6)
1400m - 1:56.59 - (33.0)
1800m - 2:29.93 - (33.3)
2200m - 3:03.86 - (33.9)
2600m - 3:38.58 - (34.7)
3000m - 4:14.22 - (35.6)
3400m - 4:49.99 - (35.7)
3800m - 5:26.46 - (36.4)
4200m - 6:04.73 - (38.2)
4600m - 6:43.72 - (38.9)
5000m - 7:22.85 - (39.1)
53,34 0